Tracking 19219 objects as of 20-Jul-2018
HD Live streaming from Space Station
objects crossing your sky now

FREGAT R/B

Track FREGAT R/B now!


NORAD ID: 41106
Int'l Code: 2015-074B
Perigee: 34,316.6 km
Apogee: 35,830.8 km
Inclination: 1.4 °
Period: 1,399.5 minutes
Semi major axis: 41444 km
RCS: Unknown
Launch date: December 11, 2015
Source: Commonwealth of Independent States (former USSR) (CIS)
Launch site: TYURATAM MISSILE AND SPACE COMPLEX (TTMTR)

Note: This is a ROCKET BODY
aabbcc
Your satellite tracking list
Your tracking list is empty




NASA's NSSDC Master Catalog

Two Line Element Set (TLE):
1 41106U 15074B   18200.32085285 -.00000143 +00000-0 +00000-0 0  9992
2 41106 001.4419 089.3170 0182684 275.7644 081.7297 01.02896279009776
Source of the keplerian elements: AFSPC